Stündliche Wetter Aaruti

Heute, 24 Juni, Donnerstag

Zeit Temperatur Niederschläge Wind Luftdruck Luftfeuchtigkeit
00:00 +16°C° 1.1 mm 1 m/S 720 mmHg 98%
01:00 +15°C° 1.1 mm 1 m/S 720 mmHg 98%
02:00 +14°C° 0.2 mm 0 m/S 719 mmHg 98%
03:00 +14°C° 0.2 mm 0 m/S 719 mmHg 98%
04:00 +13°C° 0.2 mm 0 m/S 719 mmHg 98%
05:00 +14°C° 0.1 mm 0 m/S 719 mmHg 97%
06:00 +15°C° 0.1 mm 0 m/S 719 mmHg 96%
07:00 +15°C° 0.1 mm 0 m/S 719 mmHg 94%
08:00 +17°C° 0.4 mm 0 m/S 719 mmHg 88%
09:00 +18°C° 0.4 mm 0 m/S 720 mmHg 81%
10:00 +22°C° 0.4 mm 1 m/S 720 mmHg 74%
11:00 +22°C° 0.8 mm 1 m/S 719 mmHg 73%
12:00 +23°C° 0.8 mm 1 m/S 719 mmHg 73%
13:00 +23°C° 0.8 mm 1 m/S 719 mmHg 72%
14:00 +21°C° 1.5 mm 2 m/S 719 mmHg 77%
15:00 +20°C° 1.5 mm 2 m/S 719 mmHg 81%
16:00 +19°C° 1.5 mm 3 m/S 719 mmHg 86%
17:00 +18°C° 4.6 mm 3 m/S 719 mmHg 89%
18:00 +16°C° 4.6 mm 3 m/S 720 mmHg 93%
19:00 +13°C° 4.6 mm 4 m/S 721 mmHg 97%
20:00 +13°C° 0.6 mm 3 m/S 721 mmHg 97%
21:00 +14°C° 0.6 mm 2 m/S 721 mmHg 97%
22:00 +14°C° 0.6 mm 1 m/S 721 mmHg 97%
23:00 +13°C° 0 mm 1 m/S 721 mmHg 97%

Morgen, 25 Juni, Freitag

Zeit Temperatur Niederschläge Wind Luftdruck Luftfeuchtigkeit
00:00 +13°C° 0 mm 1 m/S 721 mmHg 97%
01:00 +13°C° 0 mm 1 m/S 721 mmHg 97%
02:00 +13°C° 0 mm 1 m/S 721 mmHg 97%
03:00 +12°C° 0 mm 1 m/S 721 mmHg 97%
04:00 +12°C° 0 mm 1 m/S 721 mmHg 97%
05:00 +13°C° 0 mm 1 m/S 721 mmHg 96%
06:00 +13°C° 0 mm 1 m/S 721 mmHg 96%
07:00 +14°C° 0 mm 1 m/S 721 mmHg 95%
08:00 +15°C° 0.1 mm 1 m/S 721 mmHg 93%
09:00 +15°C° 0.1 mm 1 m/S 721 mmHg 90%
10:00 +16°C° 0.1 mm 1 m/S 721 mmHg 88%
11:00 +18°C° 0.2 mm 1 m/S 721 mmHg 80%
12:00 +19°C° 0.2 mm 2 m/S 720 mmHg 72%
13:00 +20°C° 0.2 mm 2 m/S 720 mmHg 65%
14:00 +20°C° 0.3 mm 2 m/S 720 mmHg 65%
15:00 +20°C° 0.3 mm 2 m/S 720 mmHg 65%
16:00 +21°C° 0.3 mm 2 m/S 720 mmHg 65%
17:00 +20°C° 0.4 mm 2 m/S 720 mmHg 72%
18:00 +20°C° 0.4 mm 1 m/S 720 mmHg 79%
19:00 +19°C° 0.4 mm 1 m/S 720 mmHg 86%
20:00 +16°C° 0.1 mm 1 m/S 720 mmHg 89%
21:00 +15°C° 0.1 mm 1 m/S 720 mmHg 91%
22:00 +14°C° 0.1 mm 1 m/S 721 mmHg 94%
23:00 +13°C° 0 mm 1 m/S 721 mmHg 94%

übermorgen, 26 Juni, Samstag

Zeit Temperatur Niederschläge Wind Luftdruck Luftfeuchtigkeit
00:00 +12°C° 0 mm 0 m/S 720 mmHg 95%
01:00 +11°C° 0 mm 0 m/S 720 mmHg 95%
02:00 +11°C° 0 mm 0 m/S 720 mmHg 95%
03:00 +11°C° 0 mm 0 m/S 720 mmHg 96%
04:00 +10°C° 0 mm 0 m/S 720 mmHg 96%
05:00 +12°C° 0 mm 0 m/S 720 mmHg 95%
06:00 +13°C° 0 mm 0 m/S 720 mmHg 93%
07:00 +14°C° 0 mm 0 m/S 720 mmHg 92%
08:00 +18°C° 0 mm 1 m/S 720 mmHg 83%
09:00 +20°C° 0 mm 1 m/S 720 mmHg 74%
10:00 +22°C° 0 mm 1 m/S 720 mmHg 65%
11:00 +23°C° 0 mm 1 m/S 720 mmHg 60%
12:00 +24°C° 0 mm 1 m/S 720 mmHg 56%
13:00 +25°C° 0 mm 1 m/S 720 mmHg 52%
14:00 +25°C° 0 mm 1 m/S 719 mmHg 50%
15:00 +26°C° 0 mm 1 m/S 719 mmHg 49%
16:00 +26°C° 0 mm 1 m/S 719 mmHg 48%
17:00 +25°C° 0 mm 1 m/S 719 mmHg 57%
18:00 +24°C° 0 mm 1 m/S 719 mmHg 66%
19:00 +22°C° 0 mm 1 m/S 718 mmHg 76%
20:00 +21°C° 0 mm 1 m/S 718 mmHg 81%
21:00 +19°C° 0 mm 1 m/S 718 mmHg 86%
22:00 +18°C° 0 mm 1 m/S 718 mmHg 92%
23:00 +16°C° 0 mm 1 m/S 718 mmHg 93%

27 Juni, Sonntag

Zeit Temperatur Niederschläge Wind Luftdruck Luftfeuchtigkeit
00:00 +16°C° 0 mm 1 m/S 718 mmHg 94%
01:00 +15°C° 0 mm 1 m/S 718 mmHg 95%
02:00 +15°C° 0 mm 1 m/S 717 mmHg 95%
03:00 +14°C° 0 mm 1 m/S 717 mmHg 95%
04:00 +14°C° 0 mm 1 m/S 717 mmHg 95%
05:00 +15°C° 0 mm 1 m/S 717 mmHg 92%
06:00 +16°C° 0 mm 0 m/S 717 mmHg 89%
07:00 +17°C° 0 mm 0 m/S 717 mmHg 85%
08:00 +19°C° 0 mm 0 m/S 717 mmHg 77%
09:00 +23°C° 0 mm 1 m/S 718 mmHg 69%
10:00 +25°C° 0 mm 1 m/S 718 mmHg 61%
11:00 +26°C° 0 mm 1 m/S 717 mmHg 56%
12:00 +28°C° 0 mm 1 m/S 717 mmHg 51%
13:00 +29°C° 0 mm 1 m/S 717 mmHg 46%
14:00 +29°C° 0 mm 2 m/S 717 mmHg 46%
15:00 +29°C° 0 mm 2 m/S 717 mmHg 46%
16:00 +29°C° 0 mm 2 m/S 716 mmHg 46%
17:00 +28°C° 0.3 mm 2 m/S 716 mmHg 58%
18:00 +26°C° 0.3 mm 2 m/S 716 mmHg 70%
19:00 +24°C° 0.3 mm 2 m/S 716 mmHg 82%
20:00 +21°C° 3.9 mm 2 m/S 716 mmHg 87%
21:00 +20°C° 3.9 mm 2 m/S 717 mmHg 92%
22:00 +18°C° 3.9 mm 2 m/S 717 mmHg 97%
23:00 +17°C° 0.3 mm 2 m/S 717 mmHg 97%

28 Juni, Montag

Zeit Temperatur Niederschläge Wind Luftdruck Luftfeuchtigkeit
00:00 +18°C° 0.3 mm 1 m/S 717 mmHg 96%
01:00 +16°C° 0.3 mm 0 m/S 717 mmHg 96%
02:00 +16°C° 0.1 mm 1 m/S 717 mmHg 96%
03:00 +16°C° 0.1 mm 1 m/S 717 mmHg 97%
04:00 +16°C° 0.1 mm 1 m/S 716 mmHg 97%
05:00 +16°C° 0.1 mm 1 m/S 717 mmHg 96%
06:00 +18°C° 0.1 mm 1 m/S 717 mmHg 96%
07:00 +19°C° 0.1 mm 1 m/S 718 mmHg 95%
08:00 +19°C° 0 mm 1 m/S 718 mmHg 92%
09:00 +20°C° 0 mm 1 m/S 718 mmHg 90%
10:00 +20°C° 0 mm 2 m/S 718 mmHg 87%
11:00 +21°C° 0.2 mm 2 m/S 718 mmHg 83%
12:00 +21°C° 0.2 mm 2 m/S 718 mmHg 79%
13:00 +23°C° 0.2 mm 2 m/S 718 mmHg 75%
14:00 +21°C° 0.8 mm 2 m/S 719 mmHg 81%
15:00 +21°C° 0.8 mm 2 m/S 719 mmHg 87%
16:00 +20°C° 0.8 mm 2 m/S 719 mmHg 92%
17:00 +20°C° 2.3 mm 1 m/S 719 mmHg 94%
18:00 +19°C° 2.3 mm 1 m/S 719 mmHg 96%
19:00 +18°C° 2.3 mm 1 m/S 719 mmHg 98%
20:00 +18°C° 0.9 mm 1 m/S 719 mmHg 98%
21:00 +18°C° 0.9 mm 1 m/S 719 mmHg 98%
22:00 +16°C° 0.9 mm 0 m/S 719 mmHg 98%
23:00 +18°C° 0.5 mm 1 m/S 719 mmHg 98%

29 Juni, Dienstag

Zeit Temperatur Niederschläge Wind Luftdruck Luftfeuchtigkeit
00:00 +18°C° 0.5 mm 1 m/S 719 mmHg 98%
01:00 +16°C° 0.5 mm 1 m/S 719 mmHg 98%
02:00 +16°C° 0.4 mm 1 m/S 719 mmHg 98%
03:00 +16°C° 0.4 mm 1 m/S 718 mmHg 98%
04:00 +16°C° 0.4 mm 1 m/S 718 mmHg 98%
05:00 +16°C° 0.1 mm 1 m/S 718 mmHg 97%
06:00 +16°C° 0.1 mm 0 m/S 719 mmHg 96%
07:00 +16°C° 0.1 mm 0 m/S 719 mmHg 95%
08:00 +19°C° 0 mm 1 m/S 719 mmHg 89%
09:00 +20°C° 0 mm 1 m/S 719 mmHg 83%
10:00 +21°C° 0 mm 1 m/S 719 mmHg 78%
11:00 +21°C° 0.3 mm 1 m/S 719 mmHg 80%
12:00 +21°C° 0.3 mm 1 m/S 719 mmHg 82%
13:00 +21°C° 0.3 mm 1 m/S 719 mmHg 85%
14:00 +21°C° 0.8 mm 1 m/S 719 mmHg 88%
15:00 +20°C° 0.8 mm 1 m/S 719 mmHg 90%
16:00 +20°C° 0.8 mm 1 m/S 718 mmHg 93%
17:00 +19°C° 0.9 mm 1 m/S 719 mmHg 95%
18:00 +17°C° 0.9 mm 2 m/S 719 mmHg 96%
19:00 +17°C° 0.9 mm 2 m/S 719 mmHg 98%
20:00 +16°C° 0.8 mm 1 m/S 719 mmHg 98%
21:00 +16°C° 0.8 mm 1 m/S 720 mmHg 98%
22:00 +16°C° 0.8 mm 1 m/S 720 mmHg 98%
23:00 +16°C° 0.2 mm 1 m/S 720 mmHg 98%
Mehr zeigen

Wir brauchen deine Erlaubnis

Meteoprog und unser Service Anbieter werden persönliche Daten aufbewahren, so wie Cookies, Geräte Bezeichnung oder ähnliche Technologien von deinem Gerät und Prozess, so wie Persönliche Daten Inhalte und Werbungen, genauso wie social Media und den Verkehr zu analysieren.

  • Aufbewahrung und/oder Zugang zu deiner Geräte Informationen.

    Cookies, Geräte Bezeichnung oder andere Informationen, können aufbewahrt oder Zugang zu deinem Gerät erhalten, für den Grund, der oben angegeben wird.

  • Personalisierte Werbung und Inhalte, Messungen, Einblick in das Publikum und Produkt Entwicklung.

    Werbungen und Inhalte können personalisiert werden, basierend auf ein Profil. Mehr Daten können besser personalisierte Werbungen und Inhalte hinzufügen. Werbung und Inhalte können gezeigt und gemessen werden. Einblicke über das Publikum, welche die Werbung gesehen haben und den Inhalt, können abgeleitet werden. So wie Daten können genutzt werden, um es zu verbessern oder die Benutzer Erfahrung zu verbessern das System und die Software.

Wenn du “Ich stimme zu” klickst, erlaubst du uns, die Cookies zu benutzen die Geräte Bezeichnung, den Web oder ähnliche Technologien zu benutzen. Deine Settings, können in deinem Gerät bei deinem Browser geändert werden.

Für den bestimmten Zweck, berechtigten Interessen beruhen darauf, mehr als auf den Inhalt. Du kannst mehr darüber in unseren Privaten und Cookie Politik lesen.